Houghton Lake, MI

8:33 AM EDT on April 25, 2017 (GMT -0400)
Roscommon County

Weather History for KHTL - March, 2013

Change the Weather History Date:

Tuesday, March 12, 2013

  Actual Average Record
Temperature  
Mean Temperature 30 °F 27 °F  
Max Temperature 33 °F 38 °F 64 °F (1990)
Min Temperature 26 °F 17 °F -16 °F (1948)
Degree Days  
Heating Degree Days 35 38  
Month to date heating degree days 470 477  
Since 1 July heating degree days 5844 6349  
Cooling Degree Days 0 0  
Month to date cooling degree days 0 0  
Year to date cooling degree days 0 0  
Moisture  
Dew Point 23 °F    
Average Humidity 74    
Maximum Humidity 85    
Minimum Humidity 63    
Precipitation  
Precipitation 0.01 in 0.05 in 1.40 in (1923)
Month to date precipitation 0.84 0.65  
Year to date precipitation 6.10 3.37  
Snow  
Snow T in 0.30 in 14.00 in (1923)
Month to date snowfall 0.6 3.9  
Since 1 July snowfall 51.9 58.4  
Snow Depth 7.00 in    
Sea Level Pressure  
Sea Level Pressure 29.73 in    
Wind  
Wind Speed 11 mph (WSW)    
Max Wind Speed 20 mph    
Max Gust Speed 26 mph    
Visibility 7 miles    
Events Snow    
T = Trace of Precipitation, MM = Missing Value Source: NWS Daily Summary

Daily Weather History Graph

Daily Weather History Graph

Search for Another Location

Airport or City:

Trip Planner

Search our weather history database for the weather conditions in past years. The results will help you decide how hot, cold, wet, or windy it might be!

Date:

Astronomy

Mar. 12, 2013 Rise Set
Actual Time 7:56 AM EDT 7:41 PM EDT
Civil Twilight 7:27 AM EDT 8:10 PM EDT
Nautical Twilight 6:53 AM EDT 8:44 PM EDT
Astronomical Twilight 6:19 AM EDT 9:18 PM EDT
Moon 7:58 AM EDT (3/12) 9:00 PM EDT (3/12)
Length of Visible Light 12h 43m
Length of Day
11h 45m
New Moon, 1% of the Moon is Illuminated
Mar 12
New Moon
Mar 19
First Quarter
Mar 27
Full
Apr 3
Last Quarter
Apr 10
New

Hourly Weather History & Observations

Time (EDT) Temp. Windchill Dew Point Humidity Pressure Visibility Wind Dir Wind Speed Gust Speed Precip Events Conditions
12:15 AM 33.8 °F 25.8 °F 30.2 °F 87% 29.53 in 2.5 mi WSW 10.4 mph - 0.00 in Snow Light Snow
12:28 AM 33.8 °F 25.8 °F 30.2 °F 87% 29.53 in 9.0 mi WSW 10.4 mph - 0.00 in   Overcast
12:53 AM 33.1 °F 23.4 °F 30.0 °F 89% 29.57 in 9.0 mi West 13.8 mph 21.9 mph 0.00 in Snow Light Snow
1:13 AM 32.0 °F 20.8 °F 28.4 °F 87% 29.55 in 10.0 mi West 17.3 mph 24.2 mph 0.00 in   Overcast
1:53 AM 32.0 °F 21.6 °F 28.0 °F 85% 29.60 in 10.0 mi West 15.0 mph 23.0 mph 0.00 in   Overcast
2:15 AM 32.0 °F 22.1 °F 26.6 °F 80% 29.57 in 10.0 mi West 13.8 mph 21.9 mph N/A   Overcast
2:25 AM 32.0 °F 23.0 °F 26.6 °F 80% 29.58 in 10.0 mi West 11.5 mph 19.6 mph N/A   Overcast
2:44 AM 30.2 °F 20.2 °F 26.6 °F 86% 29.59 in 10.0 mi West 12.7 mph - N/A   Overcast
2:53 AM 30.9 °F 21.7 °F 26.1 °F 82% 29.62 in 10.0 mi West 11.5 mph - N/A   Overcast
3:53 AM 30.9 °F 21.2 °F 27.0 °F 85% 29.64 in 10.0 mi West 12.7 mph - N/A   Overcast
4:53 AM 30.9 °F 21.7 °F 26.1 °F 82% 29.65 in 9.0 mi West 11.5 mph 19.6 mph N/A   Overcast
5:53 AM 28.9 °F 18.2 °F 25.0 °F 85% 29.68 in 10.0 mi West 13.8 mph - N/A   Overcast
6:12 AM 28.4 °F 17.5 °F 24.8 °F 86% 29.65 in 5.0 mi West 13.8 mph - N/A   Overcast
6:20 AM 28.4 °F 18.5 °F 24.8 °F 86% 29.65 in 3.0 mi West 11.5 mph 19.6 mph 0.00 in Snow Light Snow
6:53 AM 28.9 °F 17.7 °F 23.0 °F 78% 29.70 in 10.0 mi West 15.0 mph - 0.00 in   Overcast
7:53 AM 28.0 °F 16.1 °F 21.0 °F 75% 29.73 in 10.0 mi West 16.1 mph 24.2 mph N/A   Overcast
8:53 AM 28.0 °F 16.5 °F 21.9 °F 78% 29.74 in 10.0 mi West 15.0 mph 21.9 mph N/A   Overcast
9:53 AM 28.0 °F 18.6 °F 19.9 °F 72% 29.75 in 10.0 mi West 10.4 mph - N/A   Overcast
10:53 AM 28.0 °F 18.1 °F 19.9 °F 72% 29.77 in 10.0 mi West 11.5 mph - N/A   Overcast
11:53 AM 28.0 °F 18.1 °F 19.9 °F 72% 29.78 in 8.0 mi West 11.5 mph 17.3 mph 0.00 in Snow Light Snow
12:18 PM 28.4 °F 18.5 °F 19.4 °F 69% 29.74 in 6.0 mi WSW 11.5 mph - 0.00 in Snow Light Snow
12:53 PM 28.0 °F 18.1 °F 19.9 °F 72% 29.78 in 10.0 mi WSW 11.5 mph - 0.00 in   Overcast
1:30 PM 28.4 °F 19.1 °F 21.2 °F 74% 29.74 in 2.0 mi WSW 10.4 mph - 0.00 in Snow Light Snow
1:39 PM 28.4 °F 19.7 °F 23.0 °F 80% 29.75 in 1.8 mi WSW 9.2 mph - 0.00 in Snow Light Snow
1:53 PM 28.9 °F 21.1 °F 24.1 °F 82% 29.79 in 1.5 mi WSW 8.1 mph - 0.00 in Snow Light Snow
1:56 PM 28.4 °F 18.5 °F 24.8 °F 86% 29.74 in 1.8 mi WSW 11.5 mph - 0.00 in Snow Light Snow
1:59 PM 28.4 °F 19.1 °F 24.8 °F 86% 29.74 in 2.5 mi WSW 10.4 mph - 0.00 in Snow Light Snow
2:07 PM 28.4 °F 19.1 °F 23.0 °F 80% 29.75 in 4.0 mi WSW 10.4 mph - 0.00 in Snow Light Snow
2:18 PM 28.4 °F 19.1 °F 23.0 °F 80% 29.75 in 1.8 mi WSW 10.4 mph - 0.00 in Snow Light Snow
2:28 PM 28.4 °F 19.7 °F 23.0 °F 80% 29.75 in 3.0 mi SW 9.2 mph - 0.00 in Snow Light Snow
2:35 PM 28.4 °F 19.1 °F 23.0 °F 80% 29.75 in 2.5 mi SW 10.4 mph - 0.00 in Snow Light Snow
2:43 PM 28.4 °F 19.7 °F 23.0 °F 80% 29.75 in 1.8 mi SW 9.2 mph - 0.00 in Snow Light Snow
2:53 PM 28.9 °F 21.1 °F 23.0 °F 78% 29.79 in 1.8 mi WSW 8.1 mph - 0.00 in Snow Light Snow
2:57 PM 30.2 °F 20.8 °F 23.0 °F 75% 29.74 in 2.0 mi WSW 11.5 mph 18.4 mph 0.00 in Snow Light Snow
3:19 PM 30.2 °F 21.9 °F 23.0 °F 75% 29.75 in 3.0 mi West 9.2 mph 18.4 mph 0.00 in Snow Light Snow
3:37 PM 30.2 °F 19.3 °F 19.4 °F 64% 29.75 in 9.0 mi WSW 15.0 mph 24.2 mph 0.01 in   Overcast
3:53 PM 30.0 °F 21.1 °F 21.0 °F 69% 29.79 in 10.0 mi WSW 10.4 mph 21.9 mph 0.01 in   Overcast
4:53 PM 30.0 °F 20.5 °F 19.9 °F 66% 29.80 in 10.0 mi West 11.5 mph 19.6 mph N/A   Overcast
5:53 PM 30.9 °F 22.2 °F 19.0 °F 61% 29.81 in 10.0 mi West 10.4 mph - N/A   Overcast
6:20 PM 30.2 °F 21.3 °F 19.4 °F 64% 29.77 in 10.0 mi West 10.4 mph - N/A   Overcast
6:44 PM 28.4 °F 18.5 °F 21.2 °F 74% 29.78 in 8.0 mi West 11.5 mph - 0.00 in Snow Light Snow
6:53 PM 28.9 °F 20.4 °F 21.9 °F 75% 29.83 in 9.0 mi West 9.2 mph 16.1 mph 0.00 in Snow Light Snow
7:22 PM 28.4 °F 19.1 °F 23.0 °F 80% 29.79 in 2.0 mi WSW 10.4 mph - 0.00 in Snow Light Snow
7:34 PM 28.4 °F 19.7 °F 23.0 °F 80% 29.79 in 5.0 mi WSW 9.2 mph - 0.00 in Snow Light Snow
7:53 PM 28.0 °F 18.6 °F 21.9 °F 78% 29.84 in 4.0 mi WSW 10.4 mph - 0.00 in Snow Light Snow
8:15 PM 28.4 °F 20.4 °F 23.0 °F 80% 29.80 in 2.5 mi WSW 8.1 mph - 0.00 in Snow Light Snow
8:21 PM 28.4 °F 19.7 °F 23.0 °F 80% 29.80 in 1.5 mi WSW 9.2 mph - 0.00 in Snow Light Snow
8:27 PM 26.6 °F 18.2 °F 23.0 °F 86% 29.80 in 2.0 mi West 8.1 mph - 0.00 in Snow Light Snow
8:31 PM 26.6 °F 17.5 °F 23.0 °F 86% 29.80 in 4.0 mi WSW 9.2 mph - 0.00 in Snow Light Snow
8:53 PM 27.0 °F 16.7 °F 21.0 °F 78% 29.85 in 10.0 mi West 11.5 mph - 0.00 in   Overcast
9:53 PM 27.0 °F 18.0 °F 21.0 °F 78% 29.85 in 10.0 mi WSW 9.2 mph - N/A   Overcast
10:28 PM 26.6 °F 18.2 °F 21.2 °F 80% 29.80 in 9.0 mi WSW 8.1 mph - 0.00 in   Overcast
10:53 PM 27.0 °F 19.5 °F 21.0 °F 78% 29.85 in 10.0 mi WSW 6.9 mph - 0.00 in   Overcast
11:06 PM 26.6 °F 18.2 °F 21.2 °F 80% 29.80 in 10.0 mi WSW 8.1 mph - N/A   Overcast
11:17 PM 26.6 °F 17.5 °F 21.2 °F 80% 29.80 in 10.0 mi WSW 9.2 mph - N/A   Overcast
11:53 PM 26.1 °F 17.6 °F 21.0 °F 81% 29.84 in 8.0 mi WSW 8.1 mph - 0.00 in Snow Light Snow